EW7556 Weather Reports


Display with metric or nautical units.
time (UTC)temp
F
wind
direction
speed
MPH
gust
MPH
rain 1hr
in
rain 24hr
in
rain mn
in
humidity
%
barometer
mb
20260506133021 50 195 0.0 2.0 0.00 0.00 0.00 90 1018.9
20260506131526 50 195 0.0 4.0 0.00 0.00 0.00 90 1018.8
20260506130007 50 198 1.0 4.0 0.00 0.00 0.00 90 1018.6
20260506124513 50 201 0.0 4.0 0.00 0.00 0.00 90 1018.6
20260506123011 50 217 1.0 6.0 0.00 0.00 0.00 90 1018.6
20260506121514 50 209 3.0 9.0 0.00 0.00 0.00 89 1018.7
20260506120011 50 203 2.0 5.0 0.00 0.00 0.00 89 1018.6
20260506114521 50 210 2.0 4.0 0.00 0.00 0.00 89 1018.5
20260506113015 51 215 0.0 3.0 0.00 0.00 0.00 89 1018.2
20260506111517 51 242 2.0 6.0 0.00 0.00 0.00 90 1018.2
20260506110009 51 217 0.0 6.0 0.00 0.00 0.00 90 1018.1
20260506104514 51 225 2.0 10.0 0.00 0.00 0.00 90 1017.9
20260506103024 51 222 0.0 4.0 0.00 0.00 0.00 90 1017.7
20260506101520 51 215 0.0 4.0 0.00 0.00 0.00 90 1017.5
20260506100006 51 230 0.0 2.0 0.00 0.00 0.00 90 1017.4
20260506094515 51 240 1.0 3.0 0.00 0.00 0.00 90 1017.4
20260506093011 51 214 0.0 2.0 0.00 0.00 0.00 90 1017.5
20260506091523 51 231 1.0 5.0 0.00 0.00 0.00 90 1017.4
20260506090006 51 189 0.0 5.0 0.00 0.00 0.00 90 1017.4
20260506084510 50 200 1.0 6.0 0.00 0.00 0.00 90 1017.4
20260506083013 50 233 1.0 6.0 0.00 0.00 0.00 91 1017.4
20260506081522 50 201 3.0 6.0 0.00 0.00 0.00 91 1017.2
20260506073012 47 192 0.0 0.0 0.00 0.00 0.00 92 1016.9
20260506071515 46 193 0.0 0.0 0.00 0.00 0.00 91 1016.7
20260506070127 45 193 0.0 0.0 0.00 0.00 0.00 91 1016.7
20260506061523 47 193 0.0 0.0 0.00 0.00 0.00 91 1016.4
20260506044518 50 221 3.0 8.0 0.00 0.00 0.00 90 1016.3
20260506043017 51 191 2.0 6.0 0.00 0.00 0.00 90 1016.1
20260506041534 51 200 4.0 10.0 0.00 0.00 0.00 90 1015.8
20260506040034 51 198 2.0 7.0 0.00 0.00 0.00 89 1015.6
20260506034519 51 195 1.0 6.0 0.00 0.00 0.00 89 1015.3
20260506033022 51 238 2.0 6.0 0.00 0.00 0.00 88 1015.1
20260506031531 52 200 2.0 7.0 0.00 0.00 0.00 87 1015.0
20260506030013 53 183 3.0 8.0 0.00 0.00 0.00 86 1015.1
20260506024532 53 229 3.0 9.0 0.00 0.00 0.00 85 1015.1
20260506023026 54 243 3.0 15.0 0.00 0.00 0.00 84 1015.1
20260506021531 55 213 3.0 11.0 0.00 0.00 0.00 82 1015.0
20260506020034 56 225 5.0 10.0 0.00 0.00 0.00 81 1015.2
20260506014522 57 186 3.0 10.0 0.00 0.00 0.00 81 1015.0
20260506013027 57 219 4.0 10.0 0.00 0.00 0.00 80 1015.2
20260506011557 57 185 3.0 12.0 0.00 0.00 0.00 80 1015.2
20260506010144 57 223 5.0 11.0 0.00 0.00 0.00 79 1015.1
20260506004532 58 271 4.0 14.0 0.00 0.00 0.00 79 1015.3
20260506003033 57 200 3.0 12.0 0.00 0.00 0.00 81 1015.3
20260506001542 57 196 5.0 13.0 0.00 0.00 0.00 81 1015.3
20260506000105 57 186 7.0 15.0 0.00 0.00 0.00 80 1015.5
20260505234537 58 262 3.0 14.0 0.00 0.00 0.00 81 1015.7
20260505233027 58 215 5.0 12.0 0.00 0.00 0.00 80 1015.8
20260505231529 58 157 4.0 10.0 0.00 0.00 0.00 80 1015.9
20260505230037 58 192 5.0 10.0 0.00 0.00 0.00 79 1016.0
20260505224502 59 212 5.0 10.0 0.00 0.00 0.00 79 1016.1
20260505223005 60 176 5.0 9.0 0.00 0.00 0.00 77 1016.1
20260505221521 60 224 3.0 7.0 0.00 0.00 0.00 80 1016.3
20260505220003 59 226 2.0 6.0 0.00 0.00 0.00 81 1016.4
20260505214509 59 229 3.0 8.0 0.00 0.00 0.00 81 1016.4
20260505213008 58 191 3.0 8.0 0.00 0.00 0.00 83 1016.5
20260505211521 58 198 5.0 8.0 0.00 0.00 0.00 80 1016.5
20260505210118 59 197 3.0 6.0 0.00 0.00 0.00 83 1016.5
20260505204509 58 196 2.0 6.0 0.00 0.00 0.00 84 1016.6
20260505203014 58 202 0.0 4.0 0.00 0.00 0.00 84 1016.6
20260505201533 57 179 1.0 4.0 0.00 0.00 0.00 84 1016.7
20260505200037 57 214 1.0 4.0 0.00 0.00 0.00 83 1016.7
20260505194531 56 252 0.0 5.0 0.00 0.00 0.00 85 1016.6
20260505193027 56 244 2.0 5.0 0.00 0.00 0.00 84 1016.6
20260505191530 55 220 0.0 3.0 0.00 0.00 0.00 87 1016.6
20260505190038 55 200 2.0 3.0 0.00 0.00 0.00 88 1016.6
20260505184524 54 193 0.0 4.0 0.00 0.00 0.00 88 1016.6
20260505183022 54 222 0.0 2.0 0.00 0.00 0.00 89 1016.6
20260505181525 54 238 2.0 4.0 0.00 0.00 0.00 89 1016.6
20260505180007 54 261 0.0 3.0 0.00 0.00 0.00 90 1016.5
20260505174511 53 197 0.0 2.0 0.00 0.00 0.00 91 1016.3
20260505173014 53 238 0.0 2.0 0.00 0.00 0.00 91 1016.2
20260505171517 53 264 0.0 2.0 0.00 0.00 0.00 91 1016.2
20260505170011 52 240 0.0 2.0 0.00 0.00 0.00 92 1016.2
20260505164515 52 237 1.0 4.0 0.00 0.00 0.00 92 1016.2
20260505163020 52 245 0.0 4.0 0.00 0.00 0.00 92 1016.2
20260505161532 52 227 0.0 3.0 0.00 0.00 0.00 92 1016.1
20260505153031 51 217 0.0 4.0 0.00 0.00 0.00 92 1015.9
20260505151535 51 210 0.0 2.0 0.00 0.00 0.00 92 1015.7